FW8640 Weather Reports


time (UTC)temp
C
wind
direction
speed
KPH
gust
KPH
rain 1hr
cm
rain 24hr
cm
rain mn
cm
humidity
%
barometer
mb
20260509174041 20 0.0 1.6 0.00 0.00 0.00 79 1015.4
20260509173018 20 0.0 0.0 0.00 0.00 0.00 79 1015.2
20260509172019 20 0.0 3.2 0.00 0.00 0.00 79 1015.3
20260509171017 20 0.0 3.2 0.00 0.00 0.00 79 1015.3
20260509170017 20 0.0 1.6 0.00 0.00 0.00 79 1015.3
20260509165040 20 0.0 1.6 0.00 0.00 0.00 78 1015.4
20260509164018 21 0.0 3.2 0.00 0.00 0.00 78 1015.3
20260509163018 21 0 1.6 4.8 0.00 0.00 0.00 79 1015.3
20260509162019 20 0 1.6 6.4 0.00 0.00 0.00 80 1015.2
20260509161017 20 0 1.6 3.2 0.00 0.00 0.00 80 1015.3
20260509160017 20 0.0 4.8 0.00 0.00 0.00 80 1015.4
20260509155018 20 0 1.6 6.4 0.00 0.00 0.00 80 1015.2
20260509154018 21 0 3.2 8.0 0.00 0.00 0.00 81 1015.2
20260509153019 21 0 1.6 3.2 0.00 0.00 0.00 80 1015.2
20260509152042 21 0 1.6 8.0 0.00 0.03 0.00 78 1015.0
20260509151017 21 0 4.8 9.7 0.00 0.03 0.00 78 1015.0
20260509150018 21 0 3.2 8.0 0.00 0.03 0.00 77 1014.9
20260509145019 21 0 6.4 19.3 0.00 0.03 0.00 76 1015.0
20260509144039 21 0 4.8 12.9 0.00 0.03 0.00 76 1014.8
20260509143017 22 0 3.2 8.0 0.00 0.03 0.00 74 1014.9
20260509142019 22 0 4.8 9.7 0.00 0.03 0.00 69 1014.9
20260509141017 22 0 3.2 8.0 0.00 0.03 0.00 72 1014.9
20260509140017 21 0 1.6 6.4 0.00 0.03 0.00 74 1015.0
20260509135018 21 0 1.6 3.2 0.00 0.03 0.00 74 1015.1
20260509134059 21 0 1.6 6.4 0.00 0.03 0.00 74 1015.1
20260509133017 21 0 1.6 8.0 0.00 0.03 0.00 73 1015.2
20260509132017 21 0 4.8 16.1 0.00 0.03 0.00 72 1015.2
20260509131019 21 0 3.2 8.0 0.00 0.03 0.00 70 1015.1
20260509130040 21 0 3.2 12.9 0.00 0.03 0.00 70 1015.2
20260509125019 21 0 3.2 6.4 0.00 0.03 0.00 70 1015.1
20260509124019 21 0 3.2 9.7 0.00 0.03 0.00 70 1015.1
20260509123019 22 0 3.2 9.7 0.00 0.03 0.00 68 1015.2
20260509122019 22 0 3.2 9.7 0.00 0.03 0.00 65 1015.1
20260509121020 22 0 3.2 8.0 0.00 0.05 0.00 65 1015.2
20260509120040 22 0 4.8 14.5 0.00 0.05 0.00 65 1015.2
20260509115019 22 0 3.2 6.4 0.00 0.05 0.00 65 1015.1
20260509114019 22 0 3.2 6.4 0.00 0.05 0.00 68 1015.3
20260509113020 21 0 3.2 12.9 0.00 0.13 0.00 68 1015.2
20260509112020 21 0 3.2 8.0 0.00 0.15 0.00 69 1015.3
20260509111020 21 0 3.2 6.4 0.00 0.20 0.00 68 1015.4
20260509110022 20 0 3.2 9.7 0.00 0.23 0.00 70 1015.6
20260509105019 20 0 3.2 8.0 0.00 0.23 0.00 72 1015.6
20260509104019 20 0 3.2 6.4 0.00 0.25 0.00 72 1015.6
20260509103019 20 0 3.2 14.5 0.00 0.28 0.00 71 1015.7
20260509102040 20 0 3.2 12.9 0.00 0.28 0.00 71 1015.9
20260509101020 20 0 1.6 8.0 0.00 0.30 0.00 72 1016.0
20260509100020 20 0 3.2 6.4 0.00 0.33 0.00 72 1015.9
20260509095041 20 0 3.2 6.4 0.00 0.33 0.00 72 1015.9
20260509094019 20 0 4.8 9.7 0.00 0.36 0.00 70 1016.0
20260509093019 21 0.0 8.0 0.00 0.38 0.00 70 1016.0
20260509092020 20 0 3.2 6.4 0.00 0.38 0.00 72 1016.0
20260509091042 20 0 3.2 8.0 0.00 0.38 0.00 74 1016.2
20260509090018 19 0 3.2 8.0 0.00 0.38 0.00 75 1016.1
20260509085018 18 0 1.6 6.4 0.00 0.38 0.00 76 1016.3
20260509084019 18 0 4.8 9.7 0.00 0.38 0.00 78 1016.5
20260509083019 18 0 3.2 6.4 0.00 0.38 0.00 80 1016.5
20260509082018 18 0 1.6 4.8 0.00 0.38 0.00 82 1016.4
20260509081020 18 0.0 1.6 0.00 0.38 0.00 84 1016.6
20260509080019 17 0.0 8.0 0.00 0.38 0.00 86 1016.7
20260509075018 17 0 1.6 4.8 0.00 0.38 0.00 87 1016.6
20260509074019 17 0.0 1.6 0.00 0.38 0.00 88 1016.5
20260509073018 16 0 1.6 3.2 0.00 0.38 0.00 88 1016.5
20260509072041 16 0 1.6 4.8 0.00 0.38 0.00 89 1016.6
20260509071019 16 0.0 3.2 0.00 0.38 0.00 89 1016.6
20260509070020 16 0 1.6 6.4 0.00 0.38 0.00 89 1016.7
20260509065018 16 0 1.6 4.8 0.00 0.38 0.00 89 1016.6
20260509064018 16 0 3.2 4.8 0.00 0.38 0.00 89 1016.5
20260509063020 16 0 1.6 4.8 0.00 0.38 0.00 89 1016.6
20260509062018 16 0 1.6 3.2 0.00 0.38 0.00 90 1016.4
20260509061018 15 0.0 3.2 0.00 0.38 0.00 90 1016.7
20260509060039 15 0 1.6 6.4 0.00 0.38 0.00 90 1016.6
20260509055019 15 0 1.6 4.8 0.00 0.38 0.00 90 1016.6
20260509054020 15 0 1.6 4.8 0.00 0.38 0.00 90 1016.3
20260509053018 15 0 1.6 4.8 0.00 0.38 0.00 90 1016.3
20260509052018 15 0 1.6 6.4 0.00 0.38 0.00 90 1016.4
20260509051105 15 0 3.2 8.0 0.00 0.38 0.00 90 1016.3
20260509050020 15 0 1.6 6.4 0.00 0.38 0.00 90 1016.0
20260509045019 15 0 1.6 3.2 0.00 0.38 0.00 90 1016.2
20260509044018 15 0.0 0.0 0.00 0.38 0.00 90 1016.0
20260509043019 15 0.0 0.0 0.00 0.38 0.00 90 1015.8
20260509042019 15 0.0 0.0 0.00 0.38 0.00 90 1015.8
20260509041018 15 0.0 0.0 0.00 0.38 0.00 90 1015.8
20260509040020 15 0.0 0.0 0.00 0.38 0.00 90 1015.8
20260509035041 15 0.0 0.0 0.00 0.38 0.00 90 1015.9
20260509034019 15 0.0 0.0 0.00 0.38 0.00 90 1016.1
20260509033018 15 0.0 0.0 0.00 0.38 0.00 90 1015.9
20260509032018 15 0.0 0.0 0.00 0.38 0.00 90 1015.8
20260509031019 15 0.0 0.0 0.00 0.38 0.00 90 1015.9
20260509030043 15 0.0 0.0 0.00 0.38 0.00 90 1015.9
20260509025020 15 0.0 0.0 0.00 0.38 0.00 90 1016.0
20260509024019 15 0.0 0.0 0.00 0.38 0.00 90 1015.9
20260509023018 15 0.0 0.0 0.00 0.38 0.00 90 1015.9
20260509022020 15 0.0 0.0 0.00 0.38 0.00 90 1015.9
20260509021042 15 0.0 0.0 0.00 0.38 0.00 90 1015.9
20260509020019 15 0.0 0.0 0.00 0.38 0.00 90 1015.9
20260509015017 15 0.0 0.0 0.00 0.38 0.00 90 1015.9
20260509014039 15 0.0 0.0 0.00 0.38 0.00 90 1016.1
20260509013040 15 0.0 0.0 0.00 0.38 0.00 90 1016.1
20260509012019 15 0.0 0.0 0.00 0.38 0.00 90 1016.2
20260509011019 15 0.0 0.0 0.00 0.38 0.00 90 1016.2
20260509010019 15 0.0 0.0 0.00 0.38 0.00 90 1016.1
20260509005018 15 0.0 0.0 0.00 0.38 0.00 90 1016.1
20260509004018 15 0.0 0.0 0.00 0.38 0.00 90 1016.2
20260509003019 15 0.0 0.0 0.00 0.38 0.00 90 1016.3
20260509002017 15 0.0 0.0 0.00 0.38 0.00 90 1016.5
20260509001018 15 0.0 0.0 0.00 0.38 0.00 90 1016.7
20260509000018 15 0.0 0.0 0.00 0.38 0.00 90 1016.8
20260508235018 15 0.0 0.0 0.00 0.38 0.00 90 1016.8
20260508234017 15 0.0 0.0 0.00 0.38 0.00 90 1017.0
20260508233018 15 0.0 0.0 0.00 0.38 0.00 90 1016.7
20260508232017 15 0.0 0.0 0.00 0.38 0.00 90 1016.9
20260508231019 15 0.0 0.0 0.00 0.38 0.00 90 1016.9
20260508230018 15 0.0 0.0 0.00 0.38 0.00 90 1017.1
20260508225022 15 0.0 0.0 0.00 0.38 0.00 90 1017.2
20260508224019 15 0.0 0.0 0.00 0.38 0.00 90 1017.2
20260508223040 15 0.0 0.0 0.00 0.38 0.00 90 1017.2
20260508222017 15 0.0 0.0 0.00 0.38 0.00 90 1017.5
20260508221018 15 0.0 0.0 0.00 0.38 0.00 89 1017.5
20260508220017 15 0.0 0.0 0.00 0.38 0.00 90 1017.4
20260508215017 15 0.0 0.0 0.00 0.38 0.00 89 1017.4
20260508214021 15 0.0 0.0 0.00 0.38 0.00 89 1017.5
20260508213043 16 0.0 0.0 0.00 0.38 0.00 90 1017.4
20260508212021 15 0.0 1.6 0.00 0.38 0.00 89 1017.6
20260508211019 16 0.0 1.6 0.00 0.38 0.00 89 1017.5
20260508210019 16 0.0 1.6 0.00 0.38 0.38 89 1017.5
20260508205019 16 0.0 1.6 0.00 0.38 0.38 89 1017.6
20260508204018 16 0.0 3.2 0.00 0.38 0.38 89 1017.6
20260508203018 16 0.0 3.2 0.00 0.38 0.38 89 1017.5
20260508202020 16 0.0 1.6 0.00 0.38 0.38 89 1017.4
20260508201018 16 0.0 1.6 0.00 0.38 0.38 89 1017.5
20260508200018 16 0 1.6 3.2 0.00 0.38 0.38 89 1017.7
20260508195041 16 0.0 3.2 0.00 0.38 0.38 89 1017.6
20260508194018 16 0.0 1.6 0.00 0.38 0.38 88 1017.8
20260508193020 16 0.0 0.0 0.00 0.38 0.38 88 1017.4
20260508192018 16 0.0 1.6 0.00 0.38 0.38 88 1017.5
20260508191019 16 0.0 1.6 0.00 0.38 0.38 88 1017.4
20260508190018 16 0.0 0.0 0.00 0.38 0.38 88 1017.4
20260508185018 16 0 1.6 3.2 0.00 0.38 0.38 88 1017.3
20260508184019 16 0.0 1.6 0.00 0.38 0.38 88 1017.1
20260508183018 16 0 1.6 4.8 0.00 0.38 0.38 88 1017.1
20260508182019 16 0 1.6 8.0 0.00 0.38 0.38 87 1017.0
20260508181019 16 0 1.6 6.4 0.00 0.38 0.38 87 1016.7
20260508180018 16 0.0 1.6 0.00 0.38 0.38 87 1016.8
20260508175039 16 0.0 3.2 0.00 0.38 0.38 87 1016.6